Change the Weather History Date:

Wednesday, July 31, 2013

  Actual Average (KCLT) Record (KCLT)
Temperature  
Mean Temperature 76 °F 78 °F  
Max Temperature 84 °F 89 °F 100 °F (1999)
Min Temperature 71 °F 68 °F 56 °F (1914)
Degree Days  
Heating Degree Days 0 0  
Month to date heating degree days 0  
Since 1 June heating degree days 3  
Since 1 July heating degree days 0  
Cooling Degree Days 12 13  
Month to date cooling degree days 420  
Year to date cooling degree days 894  
Since 1 June cooling degree days 731  
Growing Degree Days 26 (Base 50)    
Moisture  
Dew Point 70 °F    
Average Humidity 86    
Maximum Humidity 100    
Minimum Humidity 62    
Precipitation  
Precipitation 0.65 in 0.14 in 1.45 in (2014)
Month to date precipitation 3.68  
Year to date precipitation 24.38  
Snow  
Snow 0.00 in 0.00 in 0.00 in ()
Month to date snowfall 0.0  
Since 1 June snowfall 0.0  
Since 1 July snowfall 0.0  
Snow Depth -    
Sea Level Pressure  
Sea Level Pressure 30.08 in    
Wind  
Wind Speed 2 mph (SSW)    
Max Wind Speed 16 mph    
Max Gust Speed 20 mph    
Visibility 8 miles    
Events Fog , Rain , Thunderstorm    
T = Trace of Precipitation, MM = Missing Value Source: NWS Daily Summary

Daily Weather History Graph

Daily Weather History Graph

Search for Another Location

Airport or City:

Trip Planner

Search our weather history database for the weather conditions in past years. The results will help you decide how hot, cold, wet, or windy it might be!

Date:

Astronomy

Jul. 31, 2013 Rise Set
Actual Time 6:31 AM EDT 8:25 PM EDT
Civil Twilight 6:03 AM EDT 8:53 PM EDT
Nautical Twilight 5:29 AM EDT 9:27 PM EDT
Astronomical Twilight 4:53 AM EDT 10:03 PM EDT
Moon 1:25 AM EDT (7/31) 3:40 PM EDT (7/31)
Length of Visible Light 14h 50m
Length of Day
13h 54m
Waning Crescent, 32% of the Moon is Illuminated
Jul 31
Waning Crescent
Aug 6
New
Aug 14
First Quarter
Aug 20
Full
Aug 28
Last Quarter

Hourly Weather History & Observations

Time (EDT) Temp. Heat Index Dew Point Humidity Pressure Visibility Wind Dir Wind Speed Gust Speed Precip Events Conditions
12:53 AM 73.0 °F - 68.0 °F 84% 30.16 in 10.0 mi Calm Calm - N/A   Clear
1:53 AM 73.0 °F - 68.0 °F 84% 30.15 in 10.0 mi Calm Calm - N/A   Clear
3:53 AM 72.0 °F - 69.1 °F 91% 30.14 in 10.0 mi Calm Calm - N/A   Clear
4:53 AM 72.0 °F - 68.0 °F 87% 30.12 in 10.0 mi Calm Calm - N/A   Clear
5:53 AM 72.0 °F - 68.0 °F 87% 30.12 in 10.0 mi NE 3.5 mph - N/A   Clear
6:53 AM 72.0 °F - 68.0 °F 87% 30.15 in 9.0 mi Calm Calm - N/A   Scattered Clouds
7:53 AM 73.0 °F - 70.0 °F 90% 30.16 in 10.0 mi Calm Calm - 0.00 in   Scattered Clouds
8:53 AM 75.9 °F - 70.0 °F 82% 30.16 in 8.0 mi Calm Calm - 0.00 in Rain Light Rain
9:53 AM 78.1 °F - 69.1 °F 74% 30.15 in 10.0 mi Calm Calm - 0.00 in   Scattered Clouds
10:53 AM 80.1 °F 82.7 °F 68.0 °F 67% 30.15 in 10.0 mi Calm Calm - N/A   Clear
11:53 AM 82.0 °F 84.9 °F 68.0 °F 62% 30.13 in 10.0 mi Calm Calm - N/A   Clear
12:53 PM 81.0 °F 84.1 °F 69.1 °F 67% 30.12 in 10.0 mi South 3.5 mph - N/A   Partly Cloudy
1:53 PM 81.0 °F 84.4 °F 70.0 °F 69% 30.10 in 10.0 mi Calm Calm - N/A   Mostly Cloudy
2:53 PM 82.9 °F 87.0 °F 70.0 °F 65% 30.07 in 10.0 mi Variable 3.5 mph - N/A   Mostly Cloudy
3:53 PM 82.0 °F 85.9 °F 70.0 °F 67% 30.04 in 10.0 mi Variable 4.6 mph - N/A   Partly Cloudy
4:53 PM 80.1 °F 83.2 °F 70.0 °F 71% 30.03 in 10.0 mi Calm Calm - 0.00 in Rain Light Rain
5:53 PM 77.0 °F - 72.0 °F 84% 30.02 in 8.0 mi Calm Calm - 0.00 in   Overcast
6:30 PM 75.2 °F - 73.4 °F 94% 30.02 in 8.0 mi Calm Calm - N/A Thunderstorm Overcast
6:53 PM 75.0 °F - 71.1 °F 87% 30.03 in 7.0 mi WNW 5.8 mph - 0.00 in Rain , Thunderstorm Light Rain
6:58 PM 73.4 °F - 71.6 °F 94% 30.04 in 2.5 mi SW 16.1 mph 19.6 mph 0.09 in Rain , Thunderstorm Rain
7:02 PM 73.4 °F - 69.8 °F 88% 30.04 in 1.0 mi SW 12.7 mph 19.6 mph 0.19 in Rain Heavy Rain
7:06 PM 71.6 °F - 71.6 °F 100% 30.04 in 0.5 mi SSW 9.2 mph 19.6 mph 0.33 in Fog , Rain Heavy Rain
7:23 PM 71.6 °F - 69.8 °F 94% 30.04 in 1.0 mi South 4.6 mph - 0.65 in Rain Light Rain
7:26 PM 71.6 °F - 69.8 °F 94% 30.04 in 3.0 mi SSW 5.8 mph - 0.65 in Rain Light Rain
7:34 PM 71.6 °F - 69.8 °F 94% 30.04 in 8.0 mi South 3.5 mph - 0.65 in Rain Light Rain
7:53 PM 72.0 °F - 71.1 °F 97% 30.04 in 8.0 mi SSW 4.6 mph - 0.65 in Rain Light Rain
8:53 PM 72.0 °F - 70.0 °F 93% 30.04 in 8.0 mi Variable 4.6 mph - 0.00 in   Overcast
9:11 PM 71.6 °F - 69.8 °F 94% 30.04 in 9.0 mi South 6.9 mph - N/A   Overcast
9:17 PM 71.6 °F - 69.8 °F 94% 30.04 in 10.0 mi Variable 5.8 mph - N/A   Overcast
9:53 PM 72.0 °F - 70.0 °F 93% 30.04 in 10.0 mi South 5.8 mph - N/A   Overcast
10:46 PM 71.6 °F - 69.8 °F 94% 30.04 in 10.0 mi Variable 5.8 mph - 0.00 in   Mostly Cloudy
10:53 PM 72.0 °F - 70.0 °F 93% 30.03 in 10.0 mi SSW 5.8 mph - 0.00 in   Mostly Cloudy
11:02 PM 71.6 °F - 69.8 °F 94% 30.03 in 10.0 mi Variable 3.5 mph - N/A   Mostly Cloudy
11:53 PM 72.0 °F - 70.0 °F 93% 30.02 in 10.0 mi SSW 4.6 mph - N/A   Overcast